www.pogodaiklimat.ru

Погода и климат >> Архив погоды >> Малайзия >> Kuala Trengganu


ПОГОДА в Kuala Trengganu

  • Прогноз погоды в Kuala Trengganu
  • Монитор погоды в Kuala Trengganu
  • Климат города

АРХИВ ПОГОДЫ в Kuala Trengganu

Время (UTC), дата Ветер
(напр.,м/с)
 
Видим.   Явления Облачность Т
(С)
Тd
(С)
f
(%)
Тe
(С)
Тes
(С)
Комфортность P
(гПа)
Po
(гПа)
Тmin
(С)
Tmax
(С)
R
(мм)
R24
(мм)
S
(см)
06 11.10 З 2 18 км 9/4 540 м
[Cu Sc Ac As]
+28.0 +25.2 85 +41 +46 опасность
перегрева
1010.2 1009.5 6
12 11.10 СЗ 1 12 км 9/1 660 м
[Sc Ac trans Ci sp]
+27.6 +24.9 85 +39 +39 очень
душно
1010.5 1009.8 +29.8
18 11.10 ЮЗ 1 9000 м слабый дождь 9/4 660 м
[Sc Ac As Ci sp]
+25.1 +24.6 97 +35 +35 очень
душно
1011.5 1010.8 3
00 12.10 ЮЗ 2 10 км слабый дождь 9/5 240 м
[Sc Ac As]
+24.6 +24.2 98 +34 +34 очень
душно
1012.6 1011.9 +24.2 13
06 12.10 З 3 18 км 9/4 660 м
[Sc Ac As]
+27.5 +24.8 85 +39 +44 очень
душно
1011.8 1011.1 15
12 12.10 штиль 0 10 км слабый дождь 10/5 420 м
[Sc As op]
+25.7 +24.7 94 +36 +36 очень
душно
1011.5 1010.8 +28.6 2
18 12.10 штиль 0 10 км 9/4 660 м
[Sc Ac As]
+24.3 +23.5 95 +33 +33 очень
душно
1012.2 1011.5 0.2
00 13.10 ЮЗ 1 25 км 8/1 420 м
[Cu hum Ac trans Ci fib]
+24.4 +23.5 95 +33 +34 очень
душно
1012.7 1012.0 +23.7 17
03 13.10 ЮЗ 1 25 км 8/1 420 м
[Cu hum Ac trans Ci fib]
+24.4 +23.5 95 +33 +43 очень
душно
1012.7 1012.0 +23.7 17
06 13.10 С 5 30 км 9/4 540 м
[Cu hum Ac trans Ci fib]
+30.1 +24.4 72 +42 +46 опасность
перегрева
1011.1 1010.4
12 13.10 С 4 9000 м слабый дождь 9/4 300 м
[Sc diur, vesp Ac As]
+28.5 +24.2 78 +40 +40 очень
душно
1011.7 1011.0 +31.2 0.0
18 13.10 Ю 2 12 км зарница 9/5 450 м
[Cb cap Ac As]
+26.0 +24.2 90 +36 +36 очень
душно
1012.7 1012.0 0.0
00 14.10 З 2 18 км {дождь} 9/1 540 м
[Cu hum Ac As Ci sp]
+25.3 +24.1 93 +35 +35 очень
душно
1012.3 1011.6 +24.4 0.4
06 14.10 С 3 25 км 9/3 500 м
[Cb cap Ac cuf]
+29.9 +25.3 76 +43 +48 опасность
перегрева
1011.3 1010.6
12 14.10 штиль 0 12 км 9/3 660 м
[Sc Ac As]
+27.3 +25.0 87 +39 +39 очень
душно
1013.0 1012.3 +30.5
18 14.10 ЮЗ 4 9000 м слабый ливневой дождь, в посл. час гроза 9/4 240 м
[Sc As op]
+24.0 +23.3 96 +32 +32 очень
душно
1010.7 1010.0 8
00 15.10 ЮЗ 2 25 км 9/5 360 м
[Cu Sc Ac As Ci fib]
+24.3 +23.5 95 +33 +33 очень
душно
1011.9 1011.2 +23.4 8
06 15.10 СВ 3 25 км 9/4 540 м
[Cu med, cong Ac trans Ci fib]
+30.8 +25.3 73 +45 +51 опасность
перегрева
1011.2 1010.5
12 15.10 СВ 1 14 км 9/1 660 м
[Sc Ac trans Ci sp]
+27.5 +25.1 87 +40 +40 очень
душно
1011.4 1010.7 +31.2
18 15.10 Ю 2 15 км 9/4 660 м
[Sc Ac trans Ci fib]
+25.5 +24.5 94 +36 +36 очень
душно
1012.0 1011.3
00 16.10 ЮЗ 2 20 км 9/3 500 м
[Cb cap Ac cuf Ci ing]
+25.3 +24.1 93 +35 +35 очень
душно
1012.7 1012.0 +24.4
06 16.10 СВ 3 15 км осадки на расстоянии 9/4 540 м
[Cu med, cong Ac trans Ci sp]
+31.8 +24.4 65 +44 +50 опасность
перегрева
1010.8 1010.1
12 16.10 штиль 0 15 км зарница 9/5 450 м
[Cb cap Ac trans Ci fib]
+28.0 +24.8 83 +40 +40 очень
душно
1010.7 1010.0 +32.2
18 16.10 штиль 0 12 км гроза, ливневой дождь 9/5 500 м
[Cb cap Ac cuf Ci ing]
+25.6 +24.7 95 +36 +36 очень
душно
1012.3 1011.6 0.6
00 17.10 ЮЗ 2 20 км 9/3 360 м
[Cu hum Ac trans Ci fib]
+25.3 +24.5 95 +35 +36 очень
душно
1011.7 1011.0 +24.6 6
06 17.10 С 5 15 км осадки на расстоянии 9/4 450 м
[Cb cap Ac trans Ci fib]
+31.4 +25.8 72 +46 +50 опасность
перегрева
1010.2 1009.5
12 17.10 ЮЗ 2 12 км зарница {гроза} 9/3 500 м
[Cb cap Ac cuf Ci sp]
+25.3 +23.3 89 +34 +34 очень
душно
1009.6 1008.9 +31.7
18 17.10 СЗ 2 10 км слабый дождь 9/5 450 м
[Cb cap Ac As]
+24.4 +22.5 89 +32 +32 очень
душно
1010.9 1010.2 0.8

 

Местоположение метеостанции Kuala Trengganu (Малайзия): широта 5.38 долгота 103.10 высота над уровнем моря 6 м.

В архиве по умолчанию представлена погода в Kuala Trengganu за последнюю неделю. Архивные данные за месяц целиком и за предыдущие месяцы, начиная с января 2011 года, Вы можете получить, выбрав интересующий диапазон дат из раскрывающегося списка и нажав кнопку "Ввод!".


*Определитесь, кто Вы:
робот инопланетянин человек

Внимание! Время в таблицах - всемирное. Для получения местного времени необходимо прибавить поправку, которая в Kuala Trengganu равна 7 ч.

Смотрите также архив погоды в соседних городах и на ближайших метеорологических станциях:

Погода в Mersing (Малайзия) (81 км)
Погода в Kota Bharu (Малайзия) (126 км)
Погода в Kuantan (Малайзия) (178 км)
Погода в Narathiwat (Таиланд) (184 км)
Погода в Cameron Highlands (Малайзия) (217 км)
Погода в Yala Agromet (Таиланд) (238 км)
Погода в Ipoh (Малайзия) (239 км)
Погода в Pattani (Таиланд) (266 км)
Погода в Sitiawan (Малайзия) (296 км)
Погода в Butterworth Air Base (Малайзия) (301 км)

Пояснения к столбцам:

Ветер - указаны скорость ветра в м/с - средняя за 10 мин, порывы в срок и между сроками (в фигурных скобках) и направление, откуда дует ветер: С - северный, СВ - северо-восточный, В - восточный, ЮВ - юго-восточный, Ю - южный, ЮЗ - юго-западный, З - западный, СЗ - северо-западный.
Видимость - горизонтальная дальность видимости в метрах или километрах. При видимости от 1 до 10 км при отсутствии осадков обычно наблюдается дымка, при ухудшении видимости до 1 км и менее - туман. В сухую погоду видимость может ухудшаться дымом, пылью или мглою.
Явления - указаны атмосферные явления, наблюдавшиеся в срок или в последний час перед сроком; фигурными скобками обозначены явления, наблюдавшиеся между сроками (за 1-3 часа до срока); квадратными скобками обозначены град или гололедные отложения с указанием их диаметра в мм.
Облачность - указаны через наклонную черту общая и нижняя облачность в баллах и высота нижней границы облаков в метрах; квадратными скобками обозначены формы облаков: Ci - перистые, Cs - перисто-слоистые, Cc - перисто-кучевые, Ac - высококучевые, As - высокослоистые, Sc - слоисто-кучевые, Ns - слоисто-дождевые, Cu - кучевые, Cb - кучево-дождевые. Подробнее классификацию облаков см. в Атласе облаков (PDF).
T - Температура воздуха - температура, измеренная на высоте 2 м над землей.
Td - Температура точки росы - температура, при понижении до которой содержащийся в воздухе водяной пар достигнет насыщения.
f - Относительная влажность воздуха - влажноcть воздуха, измеренная на высоте 2 м над землей.
Te - Эффективная температура - температура, которую ощущает одетый по сезону человек в тени. Характеристика душности погоды. При расчете учитывается влияние влажности воздуха и скорости ветра на теплоощущения человека.
Tes - Эффективная температура на солнце - температура, которую ощущает человек, с поправкой на солнечный нагрев. Характеристика знойности погоды. Зависит от высоты солнца над горизонтом, облачности и скорости ветра. Ночью, в пасмурную погоду, а также при ветре 12 м/с и более поправка равна нулю.
P - Атмосферное давление - приведенное к уровню моря атмосферное давление.
Po - Атмосферное давление - измеренное на уровне метеостанции атмосферное давление.
Tmin - Минимальная температура - минимум температуры воздуха на высоте 2 м над землей.
Tmax - Максимальная температура - максимум температуры воздуха на высоте 2 м над землей.
R - Количество осадков - Количество выпавших осадков за период времени, мм. При наведении курсора мыши на число - период времени, за который выпало указанное количество осадков.
R24 - Количество осадков - Количество выпавших осадков за 24 часа, мм.
S - Снежный покров - Высота снежного покрова, см. При наведении курсора мыши на число - состояние снежного покрова и степень покрытия местности в баллах.